Temp
61 61 61 61 61 60 60 60 60 60 61 61 61 61 62 62 61 77 82 85 85 73 74 93 93 93 95 92 93 93 86 83 82 83 86 94 91 97 97 94 94 97 97 95 98
61 61 61 61 61 60 60 60 59 60 60 61 61 61 61 62 80 84 82 75 75 74 91 91 89 92 91 90 92 89 85 83 88 89 88 91 91 92 93 93 93 94 94 94 95
60 60 60 60 60 60 59 59 59 60 60 60 61 61 61 67 80 88 75 74 74 78 96 95 94 92 88 91 89 88 84 86 87 89 90 90 91 94 92 91 95 94 97 94 93
60 60 60 60 60 60 60 59 59 60 60 61 61 61 61 77 77 90 75 74 74 92 94 92 91 87 86 84 89 84 86 87 89 89 89 88 91 91 92 94 98 98 98 94 92
59 59 59 59 59 59 59 60 60 60 60 60 60 61 70 80 87 90 75 77 90 93 91 90 88 88 84 86 86 84 85 87 90 90 90 90 89 90 91 94 98 98 93 92 93
59 59 59 59 59 59 59 59 59 59 59 60 61 62 77 79 92 90 92 90 93 93 91 93 90 92 87 86 85 86 86 87 89 90 90 88 88 88 90 93 93 93 95 95 92
59 58 58 58 59 59 59 59 59 59 60 61 62 72 78 85 92 94 93 93 95 94 89 92 93 89 90 83 88 86 82 86 87 89 88 89 84 82 87 91 90 91 93 95 94
58 58 58 58 58 59 59 59 60 60 61 62 63 77 81 91 95 92 94 91 93 94 94 94 93 90 89 88 85 82 82 79 85 87 87 87 79 83 87 88 87 89 92 92 93
58 58 58 58 58 58 58 58 61 61 62 63 73 78 82 77 86 93 95 89 90 91 92 91 91 87 85 82 79 80 76 76 78 86 84 85 81 83 85 84 84 87 88 89 91
58 57 57 57 57 57 57 59 61 63 70 77 81 75 85 84 89 91 95 92 87 87 85 85 86 82 84 81 73 74 74 76 77 83 83 82 82 82 82 83 81 83 85 84 83
58 57 57 57 57 56 63 77 77 76 78 81 83 81 84 89 92 88 92 89 88 85 78 83 78 75 80 80 79 77 75 74 78 82 79 81 80 80 80 81 79 79 78 79 80
57 57 57 56 56 57 72 85 81 83 75 86 84 85 87 89 82 86 93 83 81 76 82 76 73 83 81 79 76 76 74 74 78 80 78 80 79 79 79 76 75 74 73 71 71
57 56 56 56 57 65 86 82 88 86 76 79 83 82 85 87 82 83 87 86 80 78 78 75 79 81 78 76 74 75 74 74 74 78 80 77 75 75 77 77 74 71 69 68 66
56 56 56 55 64 88 84 86 89 86 71 74 77 82 84 88 79 92 91 86 80 77 79 78 83 77 76 75 77 71 79 77 74 72 69 78 66 74 77 76 74 70 68 68 68
56 56 56 54 83 87 83 89 90 83 58 76 77 89 85 83 83 83 93 86 78 77 77 75 76 74 73 75 79 75 79 77 75 72 72 73 68 76 79 74 74 71 69 68 70
56 56 56 73 84 86 88 86 84 67 56 72 78 76 75 80 81 82 82 88 87 80 79 79 83 81 80 81 80 81 76 74 75 73 63 70 71 72 75 77 77 72 71 69 70
55 55 67 81 80 87 86 84 67 60 75 69 70 75 75 75 77 78 76 74 72 66 67 75 76 81 82 75 79 77 71 62 60 61 60 71 69 72 76 78 79 74 71 71 71
54 52 61 84 86 84 84 75 57 66 67 74 72 74 70 76 76 77 75 72 78 76 72 68 65 76 81 77 75 73 72 65 54 58 65 68 61 73 78 77 75 75 73 71 71
52 83 86 82 83 83 78 64 64 64 67 66 71 67 71 72 72 73 74 74 79 78 67 68 67 79 79 82 81 74 67 77 66 68 61 68 72 72 73 71 72 71 70 69 70
72 80 79 83 81 80 73 58 66 68 68 68 62 67 64 69 68 70 72 77 76 79 81 74 64 76 77 78 76 74 80 64 66 52 48 60 65 68 67 70 71 71 70 71 72
74 77 80 82 81 78 67 64 65 69 68 64 64 63 66 65 68 68 69 74 75 75 78 76 68 70 73 70 71 70 68 69 69 67 57 55 64 78 75 76 73 74 74 73 72
72 73 80 81 73 72 66 60 56 65 68 65 65 65 63 65 64 66 66 71 72 75 69 74 68 63 67 76 74 74 72 71 60 57 63 61 62 77 77 78 78 77 75 76 76
67 70 79 79 63 63 63 61 62 60 61 61 60 60 64 61 57 65 67 71 70 70 68 71 64 57 61 68 69 66 71 71 70 66 58 56 61 73 74 74 76 76 77 76 75
68 64 69 68 63 56 54 57 56 63 59 59 58 61 57 58 63 59 63 65 66 66 59 63 63 60 56 63 69 64 66 69 66 57 60 63 66 70 71 72 74 76 77 76 74
63 54 53 55 58 54 54 54 52 52 57 59 56 52 50 49 56 56 61 58 65 61 65 62 56 62 64 66 67 66 66 66 62 64 59 65 66 72 74 74 76 77 77 75 74
57 53 58 56 53 53 49 51 47 48 48 50 48 50 50 47 51 48 52 52 54 61 59 62 54 60 58 64 63 60 63 65 66 66 65 66 65 76 78 79 77 77 76 74 74
60 61 55 46 52 50 48 46 45 48 50 51 48 46 45 50 53 53 54 53 53 50 51 52 55 54 49 59 59 53 61 63 65 68 67 61 69 76 74 73 74 75 76 75 75
MSLP
1018.58 1018.11 1017.74 1017.43 1017.10 1016.86 1016.74 1016.73 1016.68 1016.65 1016.58 1016.53 1016.47 1016.37 1016.28 1016.10 1015.90 1015.35 1013.21 1012.39 1012.30 1012.90 1013.05 1012.28 1011.90 1011.42 1011.02 1010.13 1010.00 1009.41 1007.40 1005.82 1006.22 1006.20 1006.20 1006.34 1006.16 1006.18 1006.55 1006.03 1006.40 1006.53 1006.76 1007.97 1008.76
1018.51 1018.04 1017.60 1017.25 1016.96 1016.72 1016.61 1016.58 1016.55 1016.49 1016.40 1016.37 1016.28 1016.19 1016.10 1015.99 1014.82 1013.16 1012.12 1012.43 1012.71 1012.85 1012.24 1011.43 1010.96 1010.89 1009.99 1009.59 1009.37 1008.56 1007.18 1006.29 1007.28 1007.23 1006.78 1006.65 1006.67 1006.48 1006.19 1006.07 1006.14 1006.77 1007.79 1008.53 1009.09
1018.55 1018.02 1017.57 1017.23 1016.96 1016.73 1016.56 1016.50 1016.43 1016.30 1016.20 1016.16 1016.12 1016.07 1016.00 1015.65 1013.72 1011.12 1011.90 1012.47 1012.73 1012.63 1011.34 1010.95 1010.59 1010.27 1009.44 1009.20 1008.96 1008.34 1007.20 1007.90 1007.92 1007.93 1007.65 1007.08 1006.74 1006.85 1006.21 1005.71 1006.16 1006.41 1006.94 1008.32 1008.95
1018.56 1018.05 1017.60 1017.21 1016.89 1016.59 1016.35 1016.21 1016.19 1016.15 1016.07 1015.97 1015.93 1015.91 1015.85 1014.96 1011.73 1011.26 1012.13 1012.45 1012.73 1011.91 1011.28 1010.88 1010.46 1009.76 1008.92 1008.65 1008.82 1008.17 1008.52 1008.27 1007.92 1008.15 1007.85 1007.27 1007.26 1006.69 1006.63 1006.37 1007.04 1007.08 1007.35 1008.02 1008.46
1018.48 1017.92 1017.41 1016.98 1016.64 1016.37 1016.17 1015.96 1015.87 1015.94 1015.91 1015.84 1015.90 1015.88 1015.70 1013.28 1010.61 1011.17 1012.13 1012.55 1012.27 1011.62 1010.76 1010.26 1009.76 1009.11 1008.53 1008.52 1008.84 1008.32 1008.34 1008.45 1008.21 1008.01 1007.83 1007.75 1007.20 1006.93 1007.09 1007.76 1007.40 1007.29 1007.85 1008.09 1008.34
1018.47 1017.93 1017.40 1016.88 1016.47 1016.19 1015.98 1015.79 1015.68 1015.71 1015.79 1015.81 1015.82 1015.81 1014.45 1011.68 1010.81 1011.27 1011.44 1011.93 1011.35 1011.05 1010.53 1009.94 1009.32 1009.16 1008.71 1008.56 1008.43 1008.49 1008.39 1008.09 1007.90 1007.62 1007.71 1007.54 1007.40 1007.67 1007.93 1008.16 1007.61 1007.71 1007.60 1007.91 1008.31
1018.32 1017.78 1017.24 1016.75 1016.34 1016.03 1015.81 1015.68 1015.55 1015.54 1015.60 1015.65 1015.66 1015.10 1013.17 1010.94 1010.82 1011.17 1011.37 1011.16 1011.13 1010.79 1010.46 1010.35 1009.85 1009.42 1008.90 1008.78 1008.98 1008.61 1008.14 1007.69 1007.63 1007.53 1007.41 1007.72 1007.43 1008.01 1008.74 1008.29 1008.07 1008.04 1008.08 1007.96 1008.20
1018.05 1017.57 1017.02 1016.50 1016.13 1015.86 1015.60 1015.44 1015.22 1015.30 1015.41 1015.51 1015.58 1014.41 1011.43 1010.97 1010.93 1011.15 1011.12 1011.19 1011.37 1011.15 1010.54 1010.56 1010.38 1009.44 1008.80 1009.02 1008.76 1008.05 1007.82 1006.65 1007.19 1007.51 1007.69 1007.70 1006.78 1008.51 1009.05 1008.79 1008.58 1008.56 1008.40 1008.41 1008.39
1017.81 1017.29 1016.79 1016.27 1015.88 1015.63 1015.45 1015.33 1015.15 1015.23 1015.32 1015.44 1014.91 1013.39 1010.39 1011.71 1010.89 1010.69 1010.75 1010.59 1011.10 1011.17 1011.01 1010.95 1010.27 1009.27 1009.34 1008.28 1007.71 1007.57 1006.29 1006.50 1007.10 1007.49 1007.55 1007.40 1006.61 1008.66 1009.42 1009.41 1009.34 1009.32 1009.29 1009.35 1009.27
1017.61 1017.02 1016.46 1016.01 1015.61 1015.38 1015.25 1015.29 1015.19 1015.15 1014.96 1014.44 1013.64 1012.68 1010.42 1009.52 1009.97 1010.27 1010.58 1010.58 1010.58 1010.76 1010.80 1010.42 1009.62 1008.90 1008.18 1007.54 1006.09 1006.33 1006.52 1006.87 1006.52 1007.24 1007.53 1007.18 1007.18 1008.84 1009.68 1009.87 1010.16 1010.45 1010.60 1010.78 1011.18
1017.31 1016.68 1016.10 1015.61 1015.27 1015.17 1014.91 1014.70 1014.62 1013.61 1012.79 1010.89 1010.25 1009.83 1009.36 1009.59 1009.87 1009.94 1010.25 1010.28 1010.19 1010.18 1009.36 1009.54 1008.70 1007.63 1007.25 1007.40 1007.42 1007.34 1007.17 1006.88 1006.99 1007.46 1007.68 1006.95 1007.40 1008.73 1009.83 1010.36 1010.92 1011.53 1012.16 1012.26 1012.53
1016.91 1016.26 1015.63 1015.11 1014.79 1014.82 1014.50 1012.13 1012.32 1012.15 1010.70 1009.54 1009.52 1009.27 1009.38 1009.20 1008.88 1009.32 1009.73 1009.35 1009.36 1008.80 1008.72 1009.13 1007.91 1007.15 1007.89 1008.20 1008.03 1007.73 1007.32 1007.02 1007.18 1007.70 1007.89 1007.01 1007.45 1008.86 1009.78 1010.90 1011.95 1012.71 1013.26 1013.91 1014.28
1016.74 1015.95 1015.32 1014.79 1014.54 1014.55 1012.61 1012.37 1012.21 1011.93 1010.29 1008.76 1008.74 1008.44 1008.35 1008.94 1008.03 1008.27 1009.03 1008.52 1008.36 1008.03 1008.04 1007.37 1006.86 1007.56 1008.08 1008.11 1007.92 1007.53 1007.14 1006.91 1007.00 1007.41 1007.64 1007.39 1007.09 1008.33 1009.70 1010.91 1012.31 1013.51 1014.22 1014.89 1015.31
1016.62 1015.75 1015.06 1014.67 1014.91 1012.72 1012.05 1012.35 1011.97 1011.88 1009.67 1008.08 1007.92 1007.61 1008.02 1007.79 1007.71 1007.40 1008.09 1007.92 1007.87 1007.33 1007.33 1007.17 1007.05 1007.73 1007.68 1007.43 1007.71 1006.88 1007.46 1007.39 1007.40 1007.36 1006.27 1006.86 1005.78 1006.64 1008.21 1009.74 1011.62 1013.21 1014.23 1014.92 1015.43
1016.34 1015.63 1015.00 1014.53 1013.21 1012.08 1012.59 1012.13 1011.78 1011.61 1008.35 1007.42 1007.48 1007.75 1007.41 1006.98 1006.61 1007.08 1007.44 1007.58 1006.98 1007.09 1007.54 1006.25 1006.79 1007.27 1007.11 1006.96 1007.39 1006.83 1007.22 1007.43 1007.35 1007.10 1006.78 1006.24 1006.34 1005.52 1007.21 1008.49 1010.47 1012.56 1013.84 1014.72 1015.26
1016.29 1015.43 1014.95 1013.88 1012.92 1012.55 1012.30 1012.09 1011.76 1010.17 1007.50 1006.80 1007.18 1007.24 1007.27 1006.89 1006.38 1007.11 1007.35 1007.49 1007.02 1006.79 1007.10 1006.17 1006.80 1006.65 1006.23 1006.62 1007.05 1007.00 1007.51 1007.52 1007.39 1006.87 1005.82 1005.82 1005.52 1004.90 1005.53 1007.07 1009.31 1012.12 1013.38 1014.37 1014.92
1016.40 1015.57 1014.52 1013.58 1012.92 1012.62 1012.26 1011.23 1010.06 1008.56 1007.78 1007.40 1007.22 1007.10 1006.70 1006.34 1006.31 1006.38 1006.58 1006.75 1006.35 1006.52 1005.98 1006.13 1006.10 1006.43 1006.63 1006.49 1006.94 1007.18 1006.83 1006.23 1005.88 1005.43 1004.75 1005.03 1005.03 1004.89 1006.16 1007.45 1008.90 1011.19 1012.86 1014.00 1014.67
1015.93 1015.49 1014.80 1013.52 1013.22 1012.77 1011.69 1010.46 1009.54 1008.76 1008.36 1008.46 1007.95 1007.36 1006.64 1006.03 1006.01 1005.93 1005.94 1005.75 1005.99 1005.62 1005.07 1004.63 1004.60 1005.14 1005.77 1005.82 1005.38 1006.04 1006.01 1005.27 1004.30 1004.24 1004.09 1005.68 1005.23 1005.24 1006.66 1008.48 1009.86 1011.19 1012.67 1013.76 1014.36
1015.44 1014.16 1013.33 1013.51 1013.22 1012.65 1011.30 1010.04 1009.44 1010.04 1010.21 1009.55 1008.37 1007.43 1006.43 1006.58 1006.47 1006.04 1005.57 1005.12 1004.80 1005.48 1005.47 1004.51 1004.44 1004.82 1005.33 1005.29 1005.40 1005.22 1005.81 1005.65 1005.35 1005.00 1005.29 1004.60 1004.48 1006.45 1007.60 1008.87 1010.02 1011.16 1012.36 1013.23 1013.90
1015.60 1013.99 1013.63 1013.58 1013.21 1012.26 1011.06 1010.74 1010.89 1011.54 1011.40 1010.61 1009.34 1008.42 1007.27 1006.74 1006.70 1006.06 1005.21 1005.01 1004.93 1005.32 1005.38 1004.93 1004.69 1004.87 1005.36 1006.04 1006.06 1005.68 1005.36 1005.89 1005.89 1005.16 1004.72 1004.53 1004.12 1004.40 1006.49 1007.73 1009.16 1010.33 1011.50 1012.48 1013.32
1015.68 1013.46 1013.76 1013.46 1012.80 1011.53 1011.03 1011.92 1012.35 1012.47 1012.67 1011.76 1010.55 1009.76 1008.88 1008.21 1007.56 1006.67 1006.04 1005.87 1006.27 1006.13 1006.05 1005.69 1005.71 1004.93 1005.32 1005.44 1004.95 1005.56 1005.68 1005.85 1005.54 1004.82 1004.16 1003.77 1003.32 1003.36 1004.85 1006.45 1007.81 1009.07 1010.40 1011.61 1012.54
1015.89 1013.39 1014.26 1013.38 1012.26 1012.84 1012.82 1014.05 1014.55 1013.39 1013.35 1012.90 1012.29 1011.42 1010.62 1009.76 1008.80 1007.88 1007.20 1007.00 1007.81 1007.22 1006.66 1006.58 1006.07 1005.10 1004.70 1004.92 1005.55 1005.12 1004.47 1004.89 1005.05 1004.99 1005.01 1004.69 1003.85 1004.82 1005.40 1006.04 1007.09 1008.12 1009.50 1010.70 1011.68
1017.17 1015.70 1015.09 1013.81 1013.74 1014.43 1015.02 1014.93 1014.94 1014.83 1014.57 1014.19 1013.58 1013.39 1012.52 1011.58 1010.47 1009.00 1008.53 1008.68 1009.23 1008.52 1007.99 1007.56 1006.65 1005.89 1005.28 1005.34 1006.16 1005.62 1005.13 1005.23 1005.02 1005.18 1004.41 1004.20 1003.97 1005.45 1006.13 1006.47 1007.13 1007.72 1008.82 1009.99 1011.10
1018.15 1016.46 1016.12 1016.52 1017.55 1017.24 1016.90 1015.97 1015.88 1016.10 1015.89 1015.97 1015.42 1014.81 1014.20 1012.85 1012.04 1010.75 1010.13 1010.35 1010.78 1010.23 1010.31 1009.43 1007.63 1006.38 1005.10 1004.35 1004.28 1004.49 1004.95 1005.12 1005.31 1004.95 1004.27 1003.60 1003.82 1004.34 1005.67 1006.31 1006.90 1007.52 1008.33 1009.31 1010.52
1019.84 1020.10 1020.74 1018.30 1018.17 1018.97 1018.72 1018.22 1017.76 1017.43 1017.61 1017.24 1016.37 1016.81 1016.43 1014.95 1013.29 1012.53 1012.07 1012.44 1011.46 1011.28 1010.62 1010.24 1008.30 1007.59 1006.44 1006.02 1005.51 1005.06 1004.77 1004.96 1005.19 1004.69 1004.23 1003.46 1003.28 1003.73 1004.42 1005.78 1006.42 1007.20 1007.99 1008.88 1009.74
1021.89 1022.33 1021.46 1020.70 1020.78 1020.16 1019.95 1019.38 1019.85 1020.04 1020.14 1018.68 1018.81 1018.64 1018.49 1017.34 1016.21 1015.25 1014.91 1014.73 1013.12 1012.04 1012.00 1010.85 1009.24 1008.53 1006.99 1006.59 1006.43 1005.84 1005.34 1005.15 1004.71 1004.49 1004.17 1004.03 1003.33 1004.18 1004.49 1005.35 1005.94 1006.50 1007.51 1008.42 1009.07
1024.25 1023.96 1023.04 1022.06 1021.38 1021.02 1021.40 1021.86 1021.78 1021.66 1021.11 1020.86 1020.93 1020.51 1019.48 1018.62 1018.34 1018.06 1017.55 1016.78 1015.79 1014.85 1013.79 1012.63 1010.42 1009.37 1007.21 1007.71 1007.06 1005.54 1004.63 1004.80 1004.31 1004.16 1003.99 1003.29 1003.49 1003.87 1004.24 1005.24 1005.97 1006.44 1006.95 1007.76 1008.51
Wind_Speed
14 13 12 11 10 9 8 8 8 8 7 7 6 5 5 6 7 7 10 1 3 10 6 10 9 7 7 5 4 4 8 8 6 7 5 5 6 6 3 1 2 3 2 5 13
16 15 13 12 11 10 9 8 9 8 7 7 6 5 4 5 9 12 4 5 4 11 13 14 12 11 8 6 5 8 8 2 3 3 3 4 5 5 3 3 6 6 4 5 12
17 16 14 13 11 9 8 9 9 8 7 6 5 4 4 7 7 4 8 9 7 11 10 8 8 12 9 7 6 4 8 5 6 2 5 5 4 2 4 5 9 6 6 7 10
18 17 16 14 12 10 9 8 8 8 7 5 4 4 4 7 1 7 10 10 9 10 11 11 12 12 9 10 6 8 3 3 4 2 4 5 3 4 3 9 7 6 5 6 10
19 19 17 15 13 11 9 8 6 6 6 4 4 5 6 8 2 6 13 11 12 10 11 12 13 9 10 7 7 8 6 4 5 3 3 2 3 2 4 10 8 5 1 4 8
18 18 18 16 14 12 9 7 5 5 5 5 5 5 6 7 4 9 16 15 11 11 10 10 7 5 6 6 9 4 4 5 5 3 4 6 3 5 10 9 4 3 5 5 7
19 18 17 16 14 12 10 7 5 4 5 6 7 6 7 4 3 11 15 12 10 8 11 5 4 9 8 8 3 4 10 9 8 7 5 4 10 5 7 5 5 6 6 7 8
20 19 17 17 14 12 10 7 4 5 6 7 7 6 5 3 4 13 10 7 6 5 5 6 2 3 6 4 7 9 7 11 9 9 5 8 12 7 6 6 8 9 9 7 5
21 20 17 17 14 11 8 6 5 7 5 8 7 6 3 4 9 13 12 10 10 6 4 5 6 3 7 12 9 8 7 7 10 6 0 8 9 7 4 5 7 10 12 12 8
22 20 18 15 13 9 6 5 7 10 7 6 5 6 7 6 9 12 10 8 9 11 9 9 8 9 9 10 9 8 8 7 8 10 9 8 4 6 4 4 6 8 10 12 11
23 21 18 14 11 6 7 6 8 8 8 8 3 4 5 7 11 12 13 12 10 15 13 14 11 12 13 5 2 4 6 7 5 4 7 11 5 5 5 2 4 7 9 11 11
25 22 19 14 8 5 6 3 6 7 9 10 12 11 7 2 8 12 14 13 14 16 15 9 14 8 3 7 8 9 10 10 5 4 7 8 10 8 5 4 5 5 8 9 10
25 22 17 11 5 6 2 6 7 4 8 3 5 9 10 13 9 17 20 15 14 16 15 16 2 4 13 11 11 12 11 6 9 7 9 9 14 14 10 8 8 7 6 7 7
25 21 15 9 3 2 3 7 7 5 6 8 6 4 9 9 10 10 19 13 8 14 14 11 10 10 13 13 13 13 12 10 8 9 10 7 11 15 15 12 7 7 6 6 6
26 21 13 4 4 1 8 9 3 5 6 4 6 5 5 14 9 12 18 12 14 10 8 7 11 16 16 15 13 12 6 11 10 11 13 14 9 10 11 12 12 9 8 6 5
28 22 14 4 3 6 9 5 5 7 4 4 5 5 8 14 5 9 12 11 9 11 13 15 3 8 9 8 12 4 9 9 11 13 15 17 17 11 14 13 13 10 9 8 7
27 20 9 5 6 12 8 5 7 7 2 3 2 1 6 10 15 10 17 18 13 14 16 18 18 15 10 12 12 11 12 10 12 11 13 1 8 12 9 6 10 13 11 10 9
27 14 3 5 9 8 5 6 7 4 3 5 4 10 8 8 14 16 11 18 22 17 12 13 16 21 14 21 15 20 16 12 11 10 8 8 7 5 6 9 8 11 11 10 10
26 2 1 10 9 6 7 7 5 4 5 9 11 9 10 8 7 9 19 17 17 19 17 9 16 5 6 14 18 12 12 10 16 13 12 14 8 10 10 11 11 12 13 13 12
6 3 7 16 7 6 5 3 2 4 8 5 7 3 6 3 7 8 14 6 18 11 18 18 19 9 9 7 7 12 7 9 11 14 17 11 13 10 15 17 15 15 15 14 15
4 4 10 17 4 5 4 5 3 3 8 5 7 9 11 10 9 11 7 2 5 7 9 12 12 15 7 14 20 11 15 13 11 13 14 15 11 9 12 14 16 16 15 15 16
6 1 12 13 3 2 3 5 4 6 4 5 7 10 13 13 13 16 14 11 6 7 9 9 8 14 19 9 7 12 16 20 13 17 11 14 13 4 4 4 9 13 15 16 15
6 4 8 11 3 4 4 5 3 6 6 5 5 3 6 9 8 14 14 3 7 6 5 6 10 13 18 13 6 13 17 16 18 16 20 16 11 3 5 7 9 13 15 15 15
5 4 4 6 6 6 7 3 5 5 3 6 8 8 9 12 13 9 11 1 9 5 6 5 14 17 18 19 10 14 17 14 17 16 18 21 22 13 9 10 12 13 15 15 16
6 5 5 6 6 9 6 5 9 6 7 6 5 6 8 8 13 17 11 11 12 3 6 6 17 19 22 23 22 16 18 16 20 21 23 20 22 15 7 11 12 14 13 14 17
6 6 4 3 7 9 3 7 11 10 9 8 8 13 14 14 16 20 11 11 11 8 11 5 14 16 23 19 18 21 23 24 25 23 23 22 24 14 11 10 12 10 12 16 18
4 2 5 5 8 7 7 11 14 12 9 7 16 17 17 16 14 15 17 17 18 18 13 10 10 16 25 18 20 26 24 28 28 27 25 25 21 16 17 12 12 12 14 16 16
Wind_Direction
356 352 347 338 327 313 299 288 287 281 277 282 282 284 289 296 277 223 248 90 148 163 222 159 190 191 211 199 228 256 248 228 137 204 88 43 359 63 55 209 211 153 15 61 130
358 355 350 344 333 320 304 291 282 276 275 277 279 279 286 293 256 255 121 123 183 169 192 183 180 186 195 204 196 246 254 101 39 55 333 334 334 355 250 142 152 175 115 129 157
356 356 351 345 335 323 309 292 281 277 275 273 272 272 275 268 256 110 138 156 165 190 199 203 175 196 202 208 177 172 272 129 148 357 319 313 252 332 276 208 45 9 62 173 184
354 354 351 345 338 330 315 293 280 272 266 264 264 260 256 237 275 93 141 159 183 217 176 175 183 196 200 199 179 214 164 197 119 146 292 289 322 219 264 26 352 322 333 184 199
351 351 350 345 339 333 323 308 281 263 257 252 237 230 230 219 110 107 151 160 185 188 182 183 187 191 191 165 180 233 174 192 211 235 273 293 228 352 49 353 325 325 287 245 226
346 346 347 343 338 332 326 315 288 251 232 217 210 208 249 235 78 125 158 169 185 196 181 191 188 228 152 167 233 145 219 231 229 229 165 257 150 227 35 341 345 320 279 238 252
345 343 343 341 335 329 324 313 284 229 198 190 190 238 253 17 87 151 163 183 185 199 179 175 142 215 164 165 150 186 241 199 210 187 157 263 178 72 2 350 7 356 335 290 250
343 341 339 338 332 327 323 317 270 178 171 174 190 239 277 97 148 168 169 154 175 176 238 160 236 163 240 98 187 226 238 205 142 190 148 221 154 85 21 7 26 16 13 356 295
341 339 336 334 327 322 318 302 133 149 155 167 212 248 170 139 184 178 190 173 167 174 152 176 232 220 180 208 194 196 191 226 162 186 345 229 138 98 39 35 40 30 30 32 37
340 336 333 329 323 315 301 242 152 160 189 216 259 241 190 189 147 167 186 174 166 165 162 199 207 207 217 217 229 173 194 198 213 175 223 221 197 124 78 57 52 41 38 48 52
339 335 332 327 317 292 157 178 202 181 208 260 75 308 138 107 151 179 170 176 173 188 195 200 217 214 205 226 313 228 235 231 200 169 247 237 244 149 132 108 75 54 38 41 45
338 336 333 329 310 194 254 274 40 350 288 241 250 251 247 246 173 174 184 190 185 199 208 184 228 224 174 193 207 217 222 217 214 181 247 206 232 170 150 111 76 53 55 49 42
339 337 335 340 118 173 280 53 327 262 264 205 220 232 208 206 219 177 192 207 206 214 202 234 91 252 197 196 210 217 232 215 256 169 232 258 241 192 165 145 118 86 75 64 48
342 341 340 348 200 134 140 342 313 228 268 143 184 167 187 196 219 188 202 197 210 225 216 243 194 182 194 210 215 233 209 234 227 239 254 192 272 175 170 167 159 125 106 92 94
343 346 338 311 348 249 348 325 305 229 264 119 125 107 182 195 110 183 195 206 224 200 201 208 203 209 226 226 208 246 169 226 232 249 264 238 242 262 169 191 170 150 135 124 114
341 341 331 217 224 19 323 298 230 232 215 134 121 180 172 210 203 136 180 226 254 235 223 253 165 209 214 186 199 160 197 226 242 250 241 240 249 251 187 214 154 155 147 144 144
338 331 327 305 347 328 315 218 239 252 86 89 61 317 245 209 218 196 190 201 209 210 223 218 222 220 234 200 193 209 224 232 213 209 247 35 245 243 99 130 166 163 156 158 161
331 319 124 26 330 312 260 234 251 48 354 7 311 297 244 203 219 216 219 216 218 233 275 223 218 211 197 227 212 205 225 253 263 258 242 140 233 220 134 143 149 152 157 160 174
315 190 46 352 337 291 273 247 341 12 349 330 303 258 236 217 257 219 229 233 224 214 232 234 247 135 234 213 227 206 227 267 278 263 265 271 237 165 166 176 174 171 173 178 182
327 278 41 341 322 262 259 305 319 11 334 293 284 281 275 238 246 215 236 230 240 253 225 247 256 211 166 207 211 259 246 211 220 257 256 255 252 279 180 196 189 189 189 185 185
290 246 16 345 266 243 294 37 322 21 355 302 297 283 273 280 272 272 280 181 249 200 235 239 233 236 190 217 235 189 230 234 281 272 274 269 260 178 198 196 197 202 192 186 189
312 288 7 334 257 4 25 345 331 322 346 299 290 281 273 286 276 261 260 258 5 292 227 213 252 238 222 227 307 287 258 228 227 244 236 273 276 110 153 199 209 194 190 191 194
346 332 23 328 36 18 355 299 293 335 349 323 291 351 329 280 277 251 266 55 357 277 317 203 230 245 241 208 216 248 237 248 257 256 258 261 242 115 144 184 190 187 183 192 195
314 330 47 62 52 340 354 345 321 349 292 326 310 285 307 263 254 268 262 104 326 351 323 284 249 252 252 260 263 225 220 231 234 238 248 243 259 184 173 192 184 193 198 197 195
357 58 11 348 13 344 339 332 317 328 333 334 199 30 336 279 274 263 267 304 255 57 299 292 249 248 254 265 273 269 256 217 231 244 250 259 261 273 215 217 214 212 212 201 202
13 347 343 29 333 328 48 43 322 354 318 313 305 338 314 287 290 300 306 294 285 337 304 245 262 255 259 256 259 255 253 258 258 254 249 260 256 263 271 227 254 225 215 211 214
25 93 287 83 347 332 28 343 322 325 292 346 332 307 294 298 320 305 293 284 279 285 290 287 271 244 254 256 259 254 249 248 252 249 251 251 259 254 253 227 241 248 242 219 223